Location: Boston
(42.3580°N, 71.0600°W)
Time: 17:18:26
(UTC-04:00)

Vanguard 2 Rocket - Visible Passes

Search period start: 24 March 2019 00:00
Search period end: 03 April 2019 00:00
Orbit: 556 x 3325 km, 32.9° (Epoch: 24 March)

Date Brightness Start Highest point End Pass type
(mag) Time Alt. Az. Time Alt. Az. Time Alt. Az.
24 Mar 9.2 02:33:23 60° SSE 02:33:23 60° SSE 02:46:31 10° E visible
24 Mar 9.0 04:39:08 28° WSW 04:48:35 52° SSW 04:59:18 10° SE visible
24 Mar 10.5 20:50:23 10° SSE 20:53:46 13° SSE 20:53:46 13° SSE visible
24 Mar 10.6 22:57:06 10° SSW 23:30:51 - E 22:59:39 16° SSW visible
25 Mar 9.6 01:36:37 46° ESE 01:36:37 46° ESE 01:46:31 10° E visible
25 Mar 9.1 03:42:21 46° WSW 03:47:44 59° S 04:00:13 10° ESE visible
25 Mar 9.2 05:48:18 10° W 06:02:23 36° SW 06:11:26 10° SSE visible
25 Mar 10.2 21:57:59 10° SSW 22:04:30 23° S 22:04:30 23° S visible
26 Mar 10.1 00:10:11 10° SW 00:39:51 29° ESE 00:46:04 10° E visible
26 Mar 9.2 02:45:35 61° SSW 02:46:25 62° S 03:00:41 10° ESE visible
26 Mar 9.2 04:51:21 23° W 05:02:15 46° SSW 05:13:02 10° SE visible
26 Mar 10.1 20:59:59 10° S 21:09:28 22° SE 21:09:28 22° SE visible
26 Mar 10.3 23:09:51 10° SW 23:43:07 15° E 23:45:04 10° E visible
27 Mar 9.4 01:48:52 54° SE 01:48:52 54° SE 02:00:44 10° E visible
27 Mar 9.2 03:54:37 39° WSW 04:01:33 54° SSW 04:14:07 10° SE visible
27 Mar 9.5 06:02:56 10° W 06:15:38 28° SW 06:24:23 10° SSE visible
27 Mar 10.3 20:03:59 10° SSE 20:11:45 15° SE 20:14:33 14° ESE visible
27 Mar 9.9 22:10:15 10° SSW 22:46:25 - E 22:20:29 34° S visible
28 Mar 9.9 00:23:41 10° WSW 00:52:11 36° ESE 01:00:18 10° E visible
28 Mar 9.2 02:57:57 57° SW 03:00:19 60° S 03:14:43 10° ESE visible
28 Mar 9.4 05:03:42 18° W 05:15:43 38° SW 05:26:25 10° SSE visible
28 Mar 9.8 21:11:29 10° SSW 21:25:04 31° SE 21:25:38 31° SE visible
28 Mar 10.0 23:23:06 10° SW 23:55:35 20° E 23:59:23 10° E visible
29 Mar 9.4 02:01:21 59° SSE 02:01:21 59° SSE 02:14:50 10° ESE visible
29 Mar 9.3 04:07:08 33° WSW 04:15:11 48° SSW 04:27:47 10° SE visible
29 Mar 10.0 20:13:48 10° S 20:24:35 22° SE 20:30:49 19° ESE visible
29 Mar 9.6 22:23:10 10° SW 22:59:05 - E 22:36:44 46° S visible
30 Mar 9.8 00:37:27 10° WSW 01:04:52 42° ESE 01:14:27 10° E visible
30 Mar 9.3 03:10:38 51° SW 03:14:05 56° SSW 03:28:34 10° SE visible
30 Mar 9.6 05:16:25 14° W 05:28:55 30° SW 05:39:18 10° SSE visible
30 Mar 10.2 19:18:19 10° SSE 19:24:37 14° SE 19:31:47 10° ESE visible
30 Mar 9.6 21:23:56 10° SSW 21:38:13 40° SE 21:41:54 37° SE visible
30 Mar 9.7 23:36:41 10° WSW 00:08:31 24° E 00:13:34 10° E visible
31 Mar 9.4 01:52:47 10° W 02:14:19 59° S 02:28:48 10° ESE visible
31 Mar 9.5 04:20:06 28° WSW 04:28:35 40° SSW 04:41:04 10° SSE visible
31 Mar 9.8 20:25:29 10° SSW 20:37:33 30° SE 20:46:58 20° E visible
31 Mar 9.4 22:36:32 10° SW 23:12:21 10° E 22:52:53 55° SSE visible
01 Apr 9.7 00:51:24 10° WSW 01:18:10 44° SE 01:28:30 10° ESE visible
01 Apr 9.4 03:23:59 45° SW 03:27:41 49° SSW 03:42:08 10° SE visible
01 Apr 9.9 05:29:48 10° W 05:41:53 22° SW 05:51:22 10° S visible
01 Apr 10.0 19:28:08 10° S 19:37:25 21° SE 19:49:10 10° E visible
01 Apr 9.5 21:36:59 10° SW 21:51:33 48° SSE 21:57:46 39° ESE visible
01 Apr 9.6 23:50:32 10° WSW 00:22:16 25° ESE 00:27:40 10° E visible
02 Apr 9.4 02:06:54 10° W 02:28:06 55° S 02:42:34 10° SE visible
02 Apr 9.7 04:33:58 24° WSW 04:41:45 32° SW 04:53:50 10° SSE visible
02 Apr 9.6 20:38:06 10° SSW 20:50:40 39° SE 21:02:26 21° E visible
02 Apr 9.4 22:50:14 10° WSW 23:06:40 60° SSE 23:08:19 59° SSE visible
